******** Week 352 almanac for PRN-1 ******** ID: 1 Health: 0 Eccentricity: 0.001324653625 Time of Applicability(s): 233472 Orbital Inclination(rad): 0.9583868546 Rate of Right Ascen(r/s): -7.874613723e-09 SQRT(A) (m 1/2): 5153.588867 Right Ascen at Week(rad): -2.143806687 Argument of Perigee(rad): -0.03879143801 Mean Anom(rad): -1.269700541 Af0(s): 0.0002735837769 Af1(s/s): -3.637979e-12 week: 352 ******** Week 352 almanac for PRN-2 ******** ID: 2 Health: 0 Eccentricity: 0.01697254181 Time of Applicability(s): 233472 Orbital Inclination(rad): 0.9639415429 Rate of Right Ascen(r/s): -7.703178011e-09 SQRT(A) (m 1/2): 5153.572754 Right Ascen at Week(rad): -2.306622494 Argument of Perigee(rad): -0.8570570876 Mean Anom(rad): 0.1040796228 Af0(s): 8.29041748e-06 Af1(s/s): 7.275958e-12 week: 352 ******** Week 352 almanac for PRN-3 ******** ID: 3 Health: 0 Eccentricity: 0.006326675415 Time of Applicability(s): 233472 Orbital Inclination(rad): 0.9924639982 Rate of Right Ascen(r/s): -7.966046103e-09 SQRT(A) (m 1/2): 5153.60791 Right Ascen at Week(rad): -1.158046888 Argument of Perigee(rad): 1.212417444 Mean Anom(rad): 2.753841934 Af0(s): 0.0004785831909 Af1(s/s): -1.091394e-11 week: 352 ******** Week 352 almanac for PRN-4 ******** ID: 4 Health: 0 Eccentricity: 0.003706932068 Time of Applicability(s): 233472 Orbital Inclination(rad): 0.9704669533 Rate of Right Ascen(r/s): -7.886042771e-09 SQRT(A) (m 1/2): 5153.70752 Right Ascen at Week(rad): -0.08675979624 Argument of Perigee(rad): -2.920842109 Mean Anom(rad): -0.4549927084 Af0(s): 2.863962402e-05 Af1(s/s): 3.637979e-12 week: 352 ******** Week 352 almanac for PRN-5 ******** ID: 5 Health: 0 Eccentricity: 0.005373954773 Time of Applicability(s): 233472 Orbital Inclination(rad): 0.9790416663 Rate of Right Ascen(r/s): -8.091765626e-09 SQRT(A) (m 1/2): 5153.623535 Right Ascen at Week(rad): -1.217097659 Argument of Perigee(rad): 1.427412567 Mean Anom(rad): 0.1349311373 Af0(s): -0.0001793744873 Af1(s/s): 0 week: 352 ******** Week 352 almanac for PRN-6 ******** ID: 6 Health: 0 Eccentricity: 0.003846645355 Time of Applicability(s): 233472 Orbital Inclination(rad): 0.9873527262 Rate of Right Ascen(r/s): -7.566029441e-09 SQRT(A) (m 1/2): 5153.562988 Right Ascen at Week(rad): -2.194841509 Argument of Perigee(rad): -0.6372207128 Mean Anom(rad): -2.136636375 Af0(s): -0.000474061145 Af1(s/s): -3.637979e-12 week: 352 ******** Week 352 almanac for PRN-7 ******** ID: 7 Health: 0 Eccentricity: 0.02013063431 Time of Applicability(s): 233472 Orbital Inclination(rad): 0.9507169507 Rate of Right Ascen(r/s): -7.771752296e-09 SQRT(A) (m 1/2): 5153.595703 Right Ascen at Week(rad): 0.9219411793 Argument of Perigee(rad): -2.00704421 Mean Anom(rad): -3.055915933 Af0(s): -0.0001040070557 Af1(s/s): -3.637979e-12 week: 352 ******** Week 352 almanac for PRN-8 ******** ID: 8 Health: 0 Eccentricity: 0.01136064529 Time of Applicability(s): 233472 Orbital Inclination(rad): 0.9446229723 Rate of Right Ascen(r/s): -8.080336578e-09 SQRT(A) (m 1/2): 5153.605957 Right Ascen at Week(rad): 2.970674014 Argument of Perigee(rad): 0.4970236322 Mean Anom(rad): -0.2003882247 Af0(s): 0.0004009547363 Af1(s/s): -3.637979e-12 week: 352 ******** Week 352 almanac for PRN-9 ******** ID: 9 Health: 0 Eccentricity: 0.003398895264 Time of Applicability(s): 233472 Orbital Inclination(rad): 0.9645707147 Rate of Right Ascen(r/s): -7.988904198e-09 SQRT(A) (m 1/2): 5153.536133 Right Ascen at Week(rad): -0.150583284 Argument of Perigee(rad): 2.063835579 Mean Anom(rad): 0.3717911035 Af0(s): 0.0006082151733 Af1(s/s): 0 week: 352 ******** Week 352 almanac for PRN-10 ******** ID: 10 Health: 0 Eccentricity: 0.01096868515 Time of Applicability(s): 233472 Orbital Inclination(rad): 0.9920145897 Rate of Right Ascen(r/s): -7.943188008e-09 SQRT(A) (m 1/2): 5153.601562 Right Ascen at Week(rad): -1.160556834 Argument of Perigee(rad): -2.269945523 Mean Anom(rad): 1.791121059 Af0(s): -0.0004589876587 Af1(s/s): -3.637979e-12 week: 352 ******** Week 352 almanac for PRN-11 ******** ID: 11 Health: 0 Eccentricity: 0.002252101898 Time of Applicability(s): 233472 Orbital Inclination(rad): 0.9641992037 Rate of Right Ascen(r/s): -7.794610391e-09 SQRT(A) (m 1/2): 5153.728516 Right Ascen at Week(rad): -2.174832347 Argument of Perigee(rad): -2.249622899 Mean Anom(rad): -1.174111367 Af0(s): -0.0003821128784 Af1(s/s): 1.455192e-11 week: 352 ******** Week 352 almanac for PRN-12 ******** ID: 12 Health: 0 Eccentricity: 0.009056568146 Time of Applicability(s): 233472 Orbital Inclination(rad): 0.9589321369 Rate of Right Ascen(r/s): -8.046049436e-09 SQRT(A) (m 1/2): 5153.508301 Right Ascen at Week(rad): 2.039881361 Argument of Perigee(rad): 1.532002268 Mean Anom(rad): 2.60394662 Af0(s): -0.0004793368652 Af1(s/s): 0 week: 352 ******** Week 352 almanac for PRN-13 ******** ID: 13 Health: 0 Eccentricity: 0.009901046753 Time of Applicability(s): 233472 Orbital Inclination(rad): 0.9761594602 Rate of Right Ascen(r/s): -7.783181343e-09 SQRT(A) (m 1/2): 5153.629883 Right Ascen at Week(rad): 0.02368457349 Argument of Perigee(rad): 1.002792004 Mean Anom(rad): -0.4784889049 Af0(s): 0.0005456602051 Af1(s/s): 0 week: 352 ******** Week 352 almanac for PRN-14 ******** ID: 14 Health: 0 Eccentricity: 0.006471157074 Time of Applicability(s): 233472 Orbital Inclination(rad): 0.9422441037 Rate of Right Ascen(r/s): -8.206056101e-09 SQRT(A) (m 1/2): 5153.57959 Right Ascen at Week(rad): 1.986115634 Argument of Perigee(rad): -2.763862993 Mean Anom(rad): 2.411781071 Af0(s): 0.0005742998291 Af1(s/s): 3.637979e-12 week: 352 ******** Week 352 almanac for PRN-15 ******** ID: 15 Health: 0 Eccentricity: 0.01661205292 Time of Applicability(s): 233472 Orbital Inclination(rad): 0.9423399775 Rate of Right Ascen(r/s): -8.263201338e-09 SQRT(A) (m 1/2): 5153.618164 Right Ascen at Week(rad): -0.2932202779 Argument of Perigee(rad): 1.491671606 Mean Anom(rad): -1.210937767 Af0(s): 0.000295440332 Af1(s/s): 3.637979e-12 week: 352 ******** Week 352 almanac for PRN-16 ******** ID: 16 Health: 0 Eccentricity: 0.01502323151 Time of Applicability(s): 233472 Orbital Inclination(rad): 0.9580992332 Rate of Right Ascen(r/s): -8.057478483e-09 SQRT(A) (m 1/2): 5153.558105 Right Ascen at Week(rad): 2.056953264 Argument of Perigee(rad): 0.9192469757 Mean Anom(rad): 0.7926928116 Af0(s): 0.0001439517944 Af1(s/s): 7.275958e-12 week: 352 ******** Week 352 almanac for PRN-17 ******** ID: 17 Health: 0 Eccentricity: 0.01285028458 Time of Applicability(s): 233472 Orbital Inclination(rad): 0.9603822281 Rate of Right Ascen(r/s): -7.828897533e-09 SQRT(A) (m 1/2): 5153.507812 Right Ascen at Week(rad): 3.074460023 Argument of Perigee(rad): -1.139561221 Mean Anom(rad): -0.3188346861 Af0(s): -1.959553223e-05 Af1(s/s): -1.091394e-11 week: 352 ******** Week 352 almanac for PRN-18 ******** ID: 18 Health: 0 Eccentricity: 0.005690574646 Time of Applicability(s): 233472 Orbital Inclination(rad): 0.9723185161 Rate of Right Ascen(r/s): -7.714607058e-09 SQRT(A) (m 1/2): 5153.606934 Right Ascen at Week(rad): -2.199100028 Argument of Perigee(rad): -2.855452807 Mean Anom(rad): -2.299829685 Af0(s): -0.0003617636719 Af1(s/s): 1.091394e-11 week: 352 ******** Week 352 almanac for PRN-19 ******** ID: 19 Health: 0 Eccentricity: 0.01095676422 Time of Applicability(s): 233472 Orbital Inclination(rad): 0.9595912692 Rate of Right Ascen(r/s): -7.817468486e-09 SQRT(A) (m 1/2): 5153.65332 Right Ascen at Week(rad): 3.118365354 Argument of Perigee(rad): 2.912143434 Mean Anom(rad): 1.554085824 Af0(s): 0.0005411381592 Af1(s/s): 3.637979e-12 week: 352 ******** Week 352 almanac for PRN-20 ******** ID: 20 Health: 0 Eccentricity: 0.003691196442 Time of Applicability(s): 233472 Orbital Inclination(rad): 0.96069981 Rate of Right Ascen(r/s): -8.206056101e-09 SQRT(A) (m 1/2): 5153.606934 Right Ascen at Week(rad): -1.356285443 Argument of Perigee(rad): -2.041668883 Mean Anom(rad): -2.108812375 Af0(s): 0.0002856425659 Af1(s/s): 0 week: 352 ******** Week 352 almanac for PRN-21 ******** ID: 21 Health: 0 Eccentricity: 0.0005197525024 Time of Applicability(s): 233472 Orbital Inclination(rad): 0.9618982325 Rate of Right Ascen(r/s): -8.263201338e-09 SQRT(A) (m 1/2): 5153.680664 Right Ascen at Week(rad): -1.150141419 Argument of Perigee(rad): -0.5095198083 Mean Anom(rad): 2.490658244 Af0(s): 0.0002961940063 Af1(s/s): 7.275958e-12 week: 352 ******** Week 352 almanac for PRN-22 ******** ID: 22 Health: 0 Eccentricity: 0.01227092743 Time of Applicability(s): 233472 Orbital Inclination(rad): 0.9575359747 Rate of Right Ascen(r/s): -8.046049436e-09 SQRT(A) (m 1/2): 5153.567871 Right Ascen at Week(rad): 2.060289747 Argument of Perigee(rad): -0.999323694 Mean Anom(rad): 0.336358619 Af0(s): -4.898883057e-05 Af1(s/s): 3.637979e-12 week: 352 ******** Week 352 almanac for PRN-23 ******** ID: 23 Health: 0 Eccentricity: 0.005989074707 Time of Applicability(s): 233472 Orbital Inclination(rad): 0.9870171679 Rate of Right Ascen(r/s): -7.988904198e-09 SQRT(A) (m 1/2): 5153.648438 Right Ascen at Week(rad): -1.192395924 Argument of Perigee(rad): -2.751097547 Mean Anom(rad): 2.893569758 Af0(s): 0.0004710464477 Af1(s/s): 3.637979e-12 week: 352 ******** Week 352 almanac for PRN-24 ******** ID: 24 Health: 0 Eccentricity: 0.01781845093 Time of Applicability(s): 233472 Orbital Inclination(rad): 0.9347839237 Rate of Right Ascen(r/s): -7.920329913e-09 SQRT(A) (m 1/2): 5153.604004 Right Ascen at Week(rad): 0.8144217094 Argument of Perigee(rad): 1.127678488 Mean Anom(rad): -2.07505169 Af0(s): -0.0001371687256 Af1(s/s): 1.455192e-11 week: 352 ******** Week 352 almanac for PRN-25 ******** ID: 25 Health: 0 Eccentricity: 0.01291322708 Time of Applicability(s): 233472 Orbital Inclination(rad): 0.9471995807 Rate of Right Ascen(r/s): -8.160339911e-09 SQRT(A) (m 1/2): 5153.683105 Right Ascen at Week(rad): 1.946650458 Argument of Perigee(rad): 1.147864417 Mean Anom(rad): 2.466874051 Af0(s): 0.000357241626 Af1(s/s): -3.637979e-12 week: 352 ******** Week 352 almanac for PRN-26 ******** ID: 26 Health: 0 Eccentricity: 0.01094579697 Time of Applicability(s): 233472 Orbital Inclination(rad): 0.9279469234 Rate of Right Ascen(r/s): -8.320346576e-09 SQRT(A) (m 1/2): 5153.620605 Right Ascen at Week(rad): 1.873132855 Argument of Perigee(rad): 0.6976919882 Mean Anom(rad): 1.633216163 Af0(s): -0.0002426831299 Af1(s/s): -7.275958e-12 week: 352 ******** Week 352 almanac for PRN-27 ******** ID: 27 Health: 0 Eccentricity: 0.01411151886 Time of Applicability(s): 233472 Orbital Inclination(rad): 0.9537369754 Rate of Right Ascen(r/s): -7.954617056e-09 SQRT(A) (m 1/2): 5153.608398 Right Ascen at Week(rad): 3.002203011 Argument of Perigee(rad): 0.8641873269 Mean Anom(rad): -0.1125041584 Af0(s): -1.055144043e-05 Af1(s/s): -7.275958e-12 week: 352 ******** Week 352 almanac for PRN-28 ******** ID: 28 Health: 0 Eccentricity: 0.0004148483276 Time of Applicability(s): 233472 Orbital Inclination(rad): 0.9617064849 Rate of Right Ascen(r/s): -7.680319916e-09 SQRT(A) (m 1/2): 5153.712891 Right Ascen at Week(rad): 0.8955751354 Argument of Perigee(rad): 0.4233139079 Mean Anom(rad): -3.102152945 Af0(s): -0.0004861199341 Af1(s/s): 3.637979e-12 week: 352 ******** Week 352 almanac for PRN-29 ******** ID: 29 Health: 0 Eccentricity: 0.003244876862 Time of Applicability(s): 233472 Orbital Inclination(rad): 0.9630307418 Rate of Right Ascen(r/s): -7.840326581e-09 SQRT(A) (m 1/2): 5153.737305 Right Ascen at Week(rad): 3.091015106 Argument of Perigee(rad): 2.756271361 Mean Anom(rad): -0.2341118336 Af0(s): -0.0003142821899 Af1(s/s): 7.275958e-12 week: 352 ******** Week 352 almanac for PRN-30 ******** ID: 30 Health: 0 Eccentricity: 0.007837295532 Time of Applicability(s): 233472 Orbital Inclination(rad): 0.9359763541 Rate of Right Ascen(r/s): -7.943188008e-09 SQRT(A) (m 1/2): 5153.736328 Right Ascen at Week(rad): 0.9137413479 Argument of Perigee(rad): -2.351973422 Mean Anom(rad): 3.132863271 Af0(s): 6.255496826e-05 Af1(s/s): 1.091394e-11 week: 352 ******** Week 352 almanac for PRN-31 ******** ID: 31 Health: 0 Eccentricity: 0.01088953018 Time of Applicability(s): 233472 Orbital Inclination(rad): 0.9544859894 Rate of Right Ascen(r/s): -7.737465153e-09 SQRT(A) (m 1/2): 5153.711914 Right Ascen at Week(rad): 0.9459272309 Argument of Perigee(rad): 0.928054632 Mean Anom(rad): 2.171153939 Af0(s): -0.0001379223999 Af1(s/s): 3.637979e-12 week: 352 ******** Week 352 almanac for PRN-32 ******** ID: 32 Health: 0 Eccentricity: 0.009126186371 Time of Applicability(s): 233472 Orbital Inclination(rad): 0.9676566526 Rate of Right Ascen(r/s): -7.931758961e-09 SQRT(A) (m 1/2): 5153.662598 Right Ascen at Week(rad): -0.1337799027 Argument of Perigee(rad): -2.031289046 Mean Anom(rad): 0.5043040489 Af0(s): -0.0001379223999 Af1(s/s): 1.818989e-11 week: 352